Regional Weather Roundup
Issued by NWS

Home | Current Version | Previous Version | Graphics & Text | Print | Product List | Glossary On
Versions: 1 2 3 4 5 6 7 8 9 10 11 12 13 14 15 16 17 18 19 20 21 22 23 24 25 26 27 28 29 30 31 32 33 34 35 36 37 38 39 40 41 42 43 44 45 46 47 48 49 50
644
ASUS45 KABQ 050601
RWRNM
NEW MEXICO REGIONAL WEATHER ROUNDUP
NATIONAL WEATHER SERVICE ALBUQUERQUE NM
1100 PM MST SUN DEC 04 2016

NOTE: "FAIR" MEANS FEW OR NO CLOUDS BELOW 12,000 FEET AGL WITH NO
       SIGNIFICANT WEATHER OR OBSTRUCTIONS TO VISION.

      THIS PRODUCT IS RELEASED AS TWO VERSIONS.  ONE VERSION NEAR
      THE TOP OF THE HOUR CONTAINING PRELIMINARY DATA FROM ALBUQUERQUE
      AND OTHER STATIONS.  A FINAL VERSION WITH ADDITIONAL DATA IS
      ISSUED ABOUT 10 MINUTES AFTER THE HOUR.

NMZ501-503-504-510>518-050700-
NORTHWEST PLATEAU/NORTHCENTRAL MOUNTAINS

CITY           SKY/WX    TMP DP  RH WIND       PRES   REMARKS
FARMINGTON     FAIR      25  19  78 E8        30.05F WCI  16
6HR MIN TEMP:  23; 6HR MAX TEMP:  37;

LOS ALAMOS     FAIR      34  16  48 NW3       30.03F
SANTA FE       FAIR      23  14  68 CALM      30.01F
6HR MIN TEMP:  22; 6HR MAX TEMP:  39;

TAOS           FAIR      27   9  46 CALM      30.02F
ANGEL FIRE     FAIR      18  11  74 SW6       30.01F WCI   9

$$
NMZ402-403-502-505>509-050700-
WESTCENTRAL MOUNTAINS/SOUTHWEST MOUNTAINS

CITY           SKY/WX    TMP DP  RH WIND       PRES   REMARKS
GALLUP         FAIR      22  17  81 CALM      30.07F
6HR MIN TEMP:  19; 6HR MAX TEMP:  39;

GRANTS         FAIR      21  16  80 N6        30.09F WCI  14
SILVER CITY    FAIR      31  27  85 N5        30.08F WCI  26

$$
NMZ407-409-411-412-050700-
SOUTHERN DESERTS

CITY           SKY/WX    TMP DP  RH WIND       PRES   REMARKS
DEMING         FAIR      32  27  81 SW3       30.07S
6HR MIN TEMP:  32; 6HR MAX TEMP:  51;

LAS CRUCES     FAIR      37  23  57 W8        30.06F WCI  30
HOLLOMAN AFB   FAIR      33  25  70 SE5       30.08S WCI  29
T OR C         FAIR      34  18  52 W9        30.05S WCI  27
6HR MIN TEMP:  33; 6HR MAX TEMP:  50;


$$
NMZ519>523-050700-
CENTRAL VALLEYS/CENTRAL HIGHLANDS

CITY           SKY/WX    TMP DP  RH WIND       PRES   REMARKS
ALBUQUERQUE    FAIR      36  12  37 W3        30.06S
6HR MIN TEMP:  34; 6HR MAX TEMP:  45;

DOUBLE EAGLE   FAIR      22  13  67 W6        30.06S WCI  14
MORIARTY ARPT  FAIR      16   9  73 CALM      30.04S
6HR MIN TEMP:  16; 6HR MAX TEMP:  38;

CLINES CORNERS FAIR      28   7  41 W13       30.01F WCI  17
6HR MIN TEMP:  23; 6HR MAX TEMP:  35;

BELEN          FAIR      29  18  64 CALM      30.06S
6HR MIN TEMP:  28; 6HR MAX TEMP:  44;

SOCORRO        FAIR      31  17  55 CALM      30.06S
6HR MIN TEMP:  30; 6HR MAX TEMP:  44;


$$
NMZ524>526-539-540-050700-
SOUTHCENTRAL MOUNTAINS

CITY           SKY/WX    TMP DP  RH WIND       PRES   REMARKS
RUIDOSO        FAIR      30  16  55 W6        30.05S WCI  24

$$
NMZ527>531-050700-
NORTHEAST HIGHLANDS/NORTHEAST PLAINS

CITY           SKY/WX    TMP DP  RH WIND       PRES   REMARKS
LAS VEGAS      FAIR      27  13  55 CALM      29.93F
6HR MIN TEMP:  26; 6HR MAX TEMP:  36;

RATON          FAIR      19  13  77 NE6       29.88F WCI  11
6HR MIN TEMP:  19; 6HR MAX TEMP:  39;

CLAYTON        FAIR      34  26  72 SW13      29.88F WCI  25
6HR MIN TEMP:  29; 6HR MAX TEMP:  38;


$$
NMZ532>537-050700-
EASTCENTRAL PLAINS

CITY           SKY/WX    TMP DP  RH WIND       PRES   REMARKS
TUCUMCARI      FAIR      37  27  67 S17       29.92F WCI  27
6HR MIN TEMP:  29; 6HR MAX TEMP:  41;

CANNON AFB     FAIR      30  30 100 W8        29.99F WCI  22
6HR MIN TEMP:  27; 6HR MAX TEMP:  41;

CLOVIS AIRPORT FAIR      30  25  80 W10       29.99F WCI  21

$$
NMZ028-029-538-050700-
SOUTHEAST PLAINS

CITY           SKY/WX    TMP DP  RH WIND       PRES   REMARKS
ROSWELL        FAIR      30  27  88 SW7       30.01F WCI  23
6HR MIN TEMP:  30; 6HR MAX TEMP:  44;

ARTESIA        FAIR      32  32 100 SW8       30.04F WCI  25
CARLSBAD       FAIR      32  32 100 N5        30.04S WCI  27
6HR MIN TEMP:  32; 6HR MAX TEMP:  41;

HOBBS          FAIR      32  32 100 W3        30.05R


$$




USA.gov is the U.S. government's official web portal to all federal, state and local government web resources and services.